Powrót do katalogu

STARLINK-31032

AktywnyŁącznośćVLEO
NORAD 58535·PAYLOAD·🇺🇸 United States

Wystrzelony Dec 8, 2023 z Vandenberg Space Force Base

Loading…

Następne Przeloty (najbliższe 24 godziny)

TLE

ŚwieżeSource: CelesTrak SupGP

Epoka: Sep 15, 2026, 02:35 UTC

1 58535C 23192E   26258.10812500 -.00017598  00000+0 -51992-3 0  2581
2 58535  53.1576 258.5795 0001262  85.7781  46.7017 15.34401001    18

Śledź STARLINK-31032 w czasie rzeczywistym z AllMySat

Download on the App Store